Homestead AFB, FL

1:59 AM EDT on March 28, 2017 (GMT -0400)
Dade County-Homestead Regional

Weather History for KHST - May, 2013

Change the Weather History Date:

Friday, May 3, 2013

  Actual Average Record
Temperature  
Mean Temperature 73 °F -  
Max Temperature 84 °F 85 °F 93 °F (1953)
Min Temperature 64 °F 65 °F 49 °F (1941)
Cooling Degree Days 8    
Growing Degree Days 23 (Base 50)    
Moisture  
Dew Point 68 °F    
Average Humidity 91    
Maximum Humidity 100    
Minimum Humidity 65    
Precipitation  
Precipitation 0.39 in - - ()
Sea Level Pressure  
Sea Level Pressure 29.77 in    
Wind  
Wind Speed 4 mph (WSW)    
Max Wind Speed 14 mph    
Max Gust Speed -    
Visibility 6 miles    
Events Fog , Rain , Thunderstorm    
Averages and records for this station are not official NWS values.
T = Trace of Precipitation, MM = Missing Value Source: NWS Daily Summary

Daily Weather History Graph

Daily Weather History Graph

Search for Another Location

Airport or City:

Trip Planner

Search our weather history database for the weather conditions in past years. The results will help you decide how hot, cold, wet, or windy it might be!

Date:

Astronomy

May. 03, 2013 Rise Set
Actual Time 6:43 AM EDT 7:53 PM EDT
Civil Twilight 6:19 AM EDT 8:17 PM EDT
Nautical Twilight 5:50 AM EDT 8:46 PM EDT
Astronomical Twilight 5:20 AM EDT 9:16 PM EDT
Moon 2:28 AM EDT (5/3) 2:21 PM EDT (5/3)
Length of Visible Light 13h 58m
Length of Day
13h 10m
Last Quarter, 37% of the Moon is Illuminated
May 3
Last Quarter
May 9
New
May 18
First Quarter
May 25
Full
May 31
Last Quarter

Hourly Weather History & Observations

Time (EDT) Temp. Heat Index Dew Point Humidity Pressure Visibility Wind Dir Wind Speed Gust Speed Precip Events Conditions
12:58 AM 66.4 °F - 65.5 °F 97% 29.83 in 10.0 mi SW 4.6 mph - N/A   Clear
1:28 AM 66.2 °F - 66.2 °F 100% 29.81 in 9.0 mi Calm Calm - N/A   Clear
1:58 AM 66.2 °F - 65.3 °F 97% 29.81 in 7.0 mi WNW 3.5 mph - N/A   Clear
2:18 AM 64.4 °F - 64.4 °F 100% 29.79 in 5.0 mi WSW 3.5 mph - N/A   Clear
2:23 AM 64.4 °F - 64.4 °F 100% 29.79 in 5.0 mi West 3.5 mph - N/A   Clear
2:58 AM 65.7 °F - 65.1 °F 98% 29.78 in 7.0 mi WSW 4.6 mph - N/A   Clear
3:58 AM 64.4 °F - 64.4 °F 100% 29.77 in 6.0 mi West 3.5 mph - N/A   Scattered Clouds
4:03 AM 64.4 °F - 64.4 °F 100% 29.76 in 6.0 mi WSW 3.5 mph - N/A   Mostly Cloudy
4:08 AM 66.2 °F - 64.4 °F 94% 29.76 in 5.0 mi West 3.5 mph - N/A   Mostly Cloudy
4:18 AM 66.2 °F - 64.4 °F 94% 29.77 in 2.0 mi West 1.2 mph - N/A   Overcast
4:23 AM 66.2 °F - 64.4 °F 94% 29.77 in 1.8 mi Calm Calm - N/A   Overcast
4:28 AM 66.2 °F - 64.4 °F 94% 29.77 in 2.0 mi NW 1.2 mph - N/A   Overcast
4:38 AM 66.2 °F - 64.4 °F 94% 29.77 in 1.2 mi WNW 3.5 mph - N/A   Overcast
4:43 AM 66.2 °F - 64.4 °F 94% 29.78 in 0.8 mi NW 4.6 mph - N/A   Overcast
4:58 AM 65.7 °F - 65.1 °F 98% 29.79 in 0.5 mi NNW 3.5 mph - N/A Fog Fog
5:18 AM 66.2 °F - 64.4 °F 94% 29.78 in 1.0 mi NW 3.5 mph - N/A   Mist
5:23 AM 66.2 °F - 64.4 °F 94% 29.78 in 2.5 mi NNW 2.3 mph - N/A   Overcast
5:28 AM 66.2 °F - 66.2 °F 100% 29.78 in 4.0 mi NW 2.3 mph - N/A   Overcast
5:33 AM 66.2 °F - 66.2 °F 100% 29.78 in 8.0 mi NNW 3.5 mph - N/A   Overcast
5:38 AM 66.2 °F - 66.2 °F 100% 29.78 in 9.0 mi North 3.5 mph - N/A   Overcast
5:43 AM 66.2 °F - 66.2 °F 100% 29.78 in 10.0 mi North 3.5 mph - N/A   Overcast
5:48 AM 66.2 °F - 66.2 °F 100% 29.78 in 10.0 mi North 4.6 mph - N/A   Overcast
5:58 AM 66.2 °F - 65.8 °F 99% 29.79 in 10.0 mi NNW 4.6 mph - N/A   Overcast
6:58 AM 67.3 °F - 66.7 °F 98% 29.81 in 10.0 mi NNW 4.6 mph - N/A   Overcast
7:58 AM 69.1 °F - 68.4 °F 98% 29.81 in 10.0 mi NW 3.5 mph - N/A   Overcast
8:08 AM 69.8 °F - 68.0 °F 94% 29.81 in 10.0 mi WNW 3.5 mph - N/A   Overcast
8:23 AM 69.8 °F - 69.8 °F 100% 29.81 in 10.0 mi West 1.2 mph - N/A   Mostly Cloudy
8:43 AM 71.6 °F - 69.8 °F 94% 29.81 in 10.0 mi West 3.5 mph - N/A   Mostly Cloudy
8:48 AM 71.6 °F - 69.8 °F 94% 29.81 in 10.0 mi West 3.5 mph - N/A   Scattered Clouds
8:58 AM 71.4 °F - 70.2 °F 96% 29.82 in 10.0 mi West 4.6 mph - N/A   Partly Cloudy
9:58 AM 74.7 °F - 69.4 °F 84% 29.82 in 10.0 mi South 4.6 mph - N/A   Clear
10:58 AM 78.6 °F - 68.4 °F 71% 29.82 in 10.0 mi SW 9.2 mph - N/A   Clear
11:58 AM 81.1 °F 84.0 °F 68.2 °F 65% 29.81 in 10.0 mi SSW 6.9 mph - N/A   Clear
12:58 PM 82.9 °F 87.0 °F 70.2 °F 65% 29.79 in 10.0 mi South 4.6 mph - N/A   Partly Cloudy
1:30 PM 80.6 °F 83.9 °F 69.8 °F 70% 29.77 in 10.0 mi SSW 11.5 mph - N/A Rain Light Rain
1:49 PM 78.8 °F - 71.6 °F 78% 29.77 in 10.0 mi South 8.1 mph - N/A   Partly Cloudy
1:51 PM 78.8 °F - 71.6 °F 78% 29.76 in 10.0 mi South 9.2 mph - N/A Rain Light Rain
1:58 PM 78.1 °F - 72.0 °F 81% 29.78 in 3.0 mi South 5.8 mph - 0.03 in Rain Heavy Rain
2:03 PM 77.0 °F - 71.6 °F 83% 29.76 in 1.2 mi SW 4.6 mph - N/A Rain , Thunderstorm Heavy Rain
2:06 PM 75.2 °F - 71.6 °F 89% 29.76 in 1.0 mi West 6.9 mph - N/A Rain , Thunderstorm Heavy Thunderstorms and Rain
2:09 PM 75.2 °F - 71.6 °F 89% 29.76 in 4.0 mi West 9.2 mph - N/A Rain , Thunderstorm Heavy Thunderstorms and Rain
2:11 PM 75.2 °F - 71.6 °F 89% 29.76 in 1.0 mi West 6.9 mph - N/A Rain , Thunderstorm Heavy Thunderstorms and Rain
2:16 PM 77.0 °F - 73.4 °F 89% 29.76 in 4.0 mi West 5.8 mph - N/A Rain , Thunderstorm Light Thunderstorms and Rain
2:25 PM 77.0 °F - 71.6 °F 83% 29.76 in 10.0 mi Variable 3.5 mph - N/A Thunderstorm Thunderstorm
2:34 PM 78.8 °F - 68.0 °F 69% 29.76 in 10.0 mi South 3.5 mph - N/A Thunderstorm Scattered Clouds
2:55 PM 78.8 °F - 73.4 °F 83% 29.76 in 10.0 mi Variable 3.5 mph - N/A Rain , Thunderstorm Light Thunderstorms and Rain
2:57 PM 78.8 °F - 73.4 °F 83% 29.76 in 10.0 mi Variable 3.5 mph - N/A Thunderstorm Thunderstorm
2:58 PM 78.8 °F - 73.4 °F 83% 29.76 in 10.0 mi Variable 3.5 mph - N/A Rain , Thunderstorm Light Thunderstorms and Rain
3:10 PM 75.2 °F - 69.8 °F 83% 29.76 in 9.0 mi South 13.8 mph - N/A Rain , Thunderstorm Heavy Thunderstorms and Rain
3:15 PM 73.4 °F - 69.8 °F 88% 29.78 in 1.0 mi South 11.5 mph - N/A Rain , Thunderstorm Heavy Thunderstorms and Rain
3:16 PM 73.4 °F - 69.8 °F 88% 29.77 in 1.0 mi South 12.7 mph - N/A Rain , Thunderstorm Heavy Thunderstorms and Rain
3:19 PM 71.6 °F - 68.0 °F 88% 29.79 in 1.0 mi WSW 6.9 mph - N/A Rain , Thunderstorm Heavy Thunderstorms and Rain
3:20 PM 71.6 °F - 68.0 °F 88% 29.79 in 1.0 mi WSW 6.9 mph - N/A Rain , Thunderstorm Heavy Thunderstorms and Rain
3:54 PM 69.8 °F - 68.0 °F 94% 29.76 in 0.5 mi Calm Calm - N/A Fog , Rain , Thunderstorm Heavy Thunderstorms and Rain
3:58 PM 69.8 °F - 68.0 °F 94% 29.76 in 1.5 mi SSW 2.3 mph - N/A Rain , Thunderstorm Rain
4:00 PM 69.8 °F - 68.0 °F 94% 29.76 in 1.0 mi West 1.2 mph - N/A Rain , Thunderstorm Heavy Thunderstorms and Rain
4:02 PM 69.8 °F - 68.0 °F 94% 29.76 in 1.5 mi SSW 2.3 mph - N/A Rain , Thunderstorm Light Thunderstorms and Rain
4:05 PM 69.8 °F - 69.8 °F 100% 29.76 in 3.0 mi SSW 2.3 mph - N/A Rain , Thunderstorm Light Thunderstorms and Rain
4:13 PM 69.8 °F - 69.8 °F 100% 29.75 in 3.0 mi SE 2.3 mph - N/A Rain , Thunderstorm Light Rain
4:27 PM 69.8 °F - 68.0 °F 94% 29.75 in 2.0 mi East 3.5 mph - N/A Rain Light Rain
4:34 PM 69.8 °F - 68.0 °F 94% 29.74 in 1.2 mi East 5.8 mph - N/A Rain Heavy Rain
4:44 PM 69.8 °F - 68.0 °F 94% 29.74 in 6.0 mi East 5.8 mph - N/A Rain Light Rain
4:58 PM 69.6 °F - 67.6 °F 93% 29.75 in 6.0 mi South 2.3 mph - 0.33 in Rain Light Rain
5:20 PM 69.8 °F - 68.0 °F 94% 29.72 in 10.0 mi South 6.9 mph - N/A   Partly Cloudy
5:22 PM 69.8 °F - 68.0 °F 94% 29.72 in 10.0 mi South 6.9 mph - N/A Rain Light Rain
5:32 PM 69.8 °F - 68.0 °F 94% 29.72 in 10.0 mi SSW 8.1 mph - N/A   Clear
5:34 PM 69.8 °F - 68.0 °F 94% 29.72 in 10.0 mi SSW 6.9 mph - N/A Rain Light Rain
5:58 PM 71.1 °F - 68.4 °F 91% 29.72 in 10.0 mi SSW 8.1 mph - 0.03 in Rain Light Rain
6:08 PM 71.6 °F - 68.0 °F 88% 29.71 in 10.0 mi South 8.1 mph - N/A   Clear
6:58 PM 73.9 °F - 69.3 °F 85% 29.73 in 10.0 mi SSW 4.6 mph - 0.00 in   Partly Cloudy
7:58 PM 72.9 °F - 69.4 °F 89% 29.74 in 10.0 mi WSW 3.5 mph - N/A   Clear
8:58 PM 71.4 °F - 69.3 °F 93% 29.76 in 10.0 mi West 3.5 mph - N/A   Clear
9:58 PM 70.7 °F - 69.3 °F 95% 29.78 in 10.0 mi South 3.5 mph - N/A   Clear
10:58 PM 69.8 °F - 68.2 °F 95% 29.78 in 10.0 mi West 4.6 mph - N/A   Clear
11:28 PM 69.8 °F - 68.0 °F 94% 29.77 in 8.0 mi NW 5.8 mph - N/A   Clear
11:38 PM 69.8 °F - 68.0 °F 94% 29.76 in 10.0 mi NW 4.6 mph - N/A   Clear
11:58 PM 70.0 °F - 68.5 °F 95% 29.78 in 10.0 mi West 3.5 mph - N/A   Clear